EHI
0 0 0 0 0 0 0 0 0 0 0 0 0 0 0 0 0 0 0 0 0 0 0 0 0 0 0 0 0 0 0 0 0 0 0 0 0 0 0 0 0 0 0 0
0 0 0 0 0 0 0 0 0 0 0 0 0 0 0 0 0 0 0 0 0 0 0 0 0 0 0 0 0 0 0 0 0 0 0 0 0 0 0 0 0 0 0 0
0 0 0 0 0 0 0 0 0 0 0 0 0 0 0 0 0 0 0 0 0 0 0 0 0 0 0 0 0 0 0 0 0 0 0 0 0 0 0 0 0 0 0 0
0 0 0 0 0 0 0 0 0 0 0 0 0 0 0 0 0 0 0 0 0 0 0 0 0 0 0 0 0 0 0 0 0 0 0 0 0 0 0 0 0 0 0 0
0 0 0 0 0 0 0 0 0 0 0 0 0 0 0 0 0 0 0 0 0 0 0 0 0 0 0 0 0 0 0 0 0 0 0 0 0 0 0 0 0 0 0 0
0 0 0 0 0 0 0 0 0 0 0 0 0 0 0 0 0 0 0 0 0 0 0 0 0 0 0 0 0 0 0 0 0 0 0 0 0 0 0 0 0 0 0 0
0 0 0 0 0 0 0 0 0 0 0 0 0 0 0 0 0 1 1 0 0 0 0 0 0 0 0 0 0 0 0 0 0 0 0 0 0 0 0 0 0 0 0 0
0 0 0 0 0 0 0 0 0 0 0 0 0 0 0 0 1 2 2 1 0 0 0 0 0 0 0 0 0 0 0 0 0 0 0 0 0 0 0 0 0 0 0 0
0 0 0 0 0 0 0 0 0 0 0 0 0 0 0 0 1 2 2 1 0 0 0 0 0 0 0 0 0 0 0 0 0 0 0 0 0 0 0 0 0 0 0 0
0 0 0 0 0 0 0 0 0 0 0 0 0 0 0 0 0 1 1 1 0 0 0 0 0 0 0 0 0 0 0 0 0 0 0 0 0 0 0 0 0 0 0 0
0 0 0 0 0 0 0 0 0 0 0 0 0 0 0 0 0 0 0 0 0 0 0 0 0 0 0 0 0 0 0 0 0 0 0 0 0 0 0 0 0 0 0 0
0 0 0 0 0 0 0 0 0 0 0 0 0 0 0 0 0 0 0 0 0 1 1 0 0 0 0 0 0 0 0 0 0 0 0 0 0 0 0 0 0 0 0 0
0 0 0 0 0 0 0 0 0 0 0 0 0 0 0 0 0 0 0 0 0 1 2 1 0 0 0 0 0 0 0 0 0 0 0 0 0 0 0 0 0 0 0 0
0 0 0 0 0 0 0 0 0 0 0 0 0 0 0 0 0 0 0 0 0 1 2 1 0 0 0 0 0 0 0 0 0 0 0 0 0 0 0 0 0 0 0 0
0 0 0 0 0 0 0 0 0 0 0 0 0 0 0 0 0 0 0 0 0 0 1 1 0 0 0 0 0 0 0 0 0 0 0 0 0 0 0 0 0 0 0 0
0 0 0 0 0 0 0 0 0 0 0 0 0 0 0 0 0 0 0 0 0 0 0 0 0 0 0 0 0 0 0 0 0 0 0 0 0 0 0 0 0 0 0 0
0 0 0 0 0 0 0 0 0 0 0 0 0 0 0 0 0 0 0 0 0 0 0 0 0 0 0 0 0 0 0 0 0 0 0 0 0 0 0 0 0 0 0 0
0 0 0 0 0 0 0 0 0 0 0 0 0 0 0 0 0 0 0 0 0 0 0 0 0 0 0 0 0 0 0 0 0 0 0 0 0 0 0 0 0 0 0 0
0 0 0 0 0 0 0 0 0 0 0 0 0 0 0 0 0 0 0 0 0 0 0 0 0 0 0 0 0 0 0 0 0 0 0 0 0 0 0 0 0 0 0 0
0 0 0 0 0 0 0 0 0 0 0 0 0 0 0 0 0 0 0 0 0 0 0 0 0 0 0 0 0 0 0 0 0 0 0 0 0 0 0 0 0 0 0 0
0 0 0 0 0 0 0 0 0 0 0 0 0 0 0 0 0 0 0 0 0 0 0 0 0 0 0 0 0 0 0 0 0 0 0 0 0 0 0 0 0 0 0 0
0 0 0 0 0 0 0 0 0 0 0 0 0 0 0 0 0 0 0 0 0 0 0 0 0 0 0 0 0 0 0 0 0 0 0 0 0 0 0 0 0 0 0 0
0 0 0 0 0 0 0 0 0 0 0 0 0 0 0 0 0 0 0 0 0 0 0 0 0 0 0 0 0 0 0 0 0 0 0 0 0 0 0 0 0 0 0 0
0 0 0 0 0 0 0 0 0 0 0 0 0 0 0 0 0 0 0 0 0 0 0 0 0 0 0 0 0 0 0 0 0 0 0 0 0 0 0 0 0 0 0 0
0 0 0 0 0 0 0 0 0 0 0 0 0 0 0 0 0 0 0 0 0 0 0 0 0 0 0 0 0 0 0 0 0 0 0 0 0 0 0 0 0 0 0 0
0 0 0 0 0 0 0 0 0 0 0 0 0 0 0 0 0 0 0 0 0 0 0 0 0 0 0 0 0 0 0 0 0 0 0 0 0 0 0 0 0 0 0 0
0 0 0 0 0 0 0 0 0 0 0 0 0 0 0 0 0 0 0 0 0 0 0 0 0 0 0 0 0 0 0 0 0 0 0 0 0 0 0 0 0 0 0 0
Wind_Speed
5 6 5 6 7 7 6 7 7 6 6 7 6 7 7 7 8 9 10 10 12 11 10 10 9 9 9 9 8 8 8 7 7 6 6 5 5 5 4 5 5 5 5 4
2 3 4 4 7 8 7 6 6 5 6 7 5 4 4 6 8 10 11 12 12 12 12 12 12 12 10 10 9 9 9 8 7 6 6 6 5 5 5 4 4 5 5 5
2 2 1 5 7 8 6 5 6 8 9 4 3 5 7 8 9 10 11 11 12 13 13 13 13 12 12 11 10 10 9 8 8 8 7 6 6 6 6 5 5 4 4 5
2 2 5 8 5 6 6 6 6 5 5 6 7 6 5 6 9 9 10 10 11 11 11 10 11 11 10 9 10 10 9 9 9 8 8 7 6 7 6 5 5 4 4 5
3 4 5 6 4 5 5 5 5 5 5 5 4 2 1 3 6 9 9 9 9 10 9 9 10 10 10 10 10 10 10 10 10 10 9 8 8 7 6 5 5 4 4 5
4 4 6 7 4 2 4 3 4 5 6 5 4 3 5 4 4 5 5 6 6 6 6 7 8 9 11 11 11 12 11 11 10 10 10 10 9 7 5 5 5 5 4 4
5 4 6 7 3 3 4 6 4 4 5 5 6 6 5 3 3 4 5 5 6 7 7 7 8 10 11 11 12 12 10 9 9 10 10 9 7 5 6 5 5 5 4 3
5 4 7 4 2 4 6 3 2 2 3 4 4 3 3 3 3 4 4 4 6 6 6 5 7 10 10 11 10 8 9 9 10 9 9 8 7 6 6 7 6 5 4 3
7 7 5 3 4 3 4 3 2 2 2 4 4 2 2 2 3 3 4 5 5 6 5 4 6 8 9 8 7 9 10 10 9 9 7 8 8 8 6 6 5 5 4 4
1 3 2 1 2 2 2 2 2 3 4 5 4 3 3 3 3 3 3 4 4 6 5 4 4 5 7 7 8 9 10 9 9 9 8 7 6 7 6 6 6 5 5 5
2 3 1 0 1 2 1 1 2 2 3 4 6 4 4 3 4 4 3 3 4 5 5 4 4 4 4 6 8 9 9 8 8 8 8 7 6 5 7 7 8 8 7 6
5 4 3 4 3 2 3 2 3 4 3 2 5 5 5 4 3 4 4 4 4 4 4 3 4 4 3 5 7 8 7 7 6 6 6 6 6 3 2 3 6 8 8 7
5 4 3 3 2 2 3 3 3 4 5 4 3 5 5 4 3 4 4 5 5 4 4 4 4 4 3 4 6 7 7 7 6 6 6 6 6 6 4 2 3 4 6 7
3 2 1 1 2 1 3 3 4 5 4 4 4 5 5 5 4 5 4 3 4 4 4 4 4 3 3 5 6 6 6 7 7 6 6 6 6 6 5 5 4 1 1 4
3 3 4 3 2 2 4 5 6 5 4 4 4 5 6 6 5 4 3 3 5 5 4 4 4 2 3 5 6 6 5 4 5 5 5 5 5 5 5 5 4 3 2 1
2 2 3 4 5 4 5 6 6 4 4 4 4 4 4 5 5 4 4 4 5 5 4 4 3 2 4 5 5 4 4 6 6 5 5 5 5 5 5 4 4 4 3 3
4 3 4 4 5 5 5 6 6 5 5 5 4 4 5 5 5 5 4 4 5 4 3 3 2 3 4 5 5 4 4 5 7 5 4 5 5 5 5 4 4 4 3 4
5 6 6 7 7 6 5 4 5 6 5 4 5 5 5 6 5 3 3 4 5 4 2 2 3 3 4 4 4 4 4 4 4 5 4 4 4 4 4 4 4 4 2 3
5 5 4 5 6 6 6 5 5 5 5 5 6 5 5 4 4 4 4 5 5 3 0 1 4 4 4 4 5 4 5 5 4 4 4 5 5 4 4 4 4 4 4 3
5 5 5 5 5 6 6 5 5 6 5 6 7 6 5 4 4 4 5 4 1 1 1 3 3 3 3 4 6 4 4 5 5 4 4 4 4 3 3 3 3 3 3 3
6 6 6 6 5 5 6 6 7 7 6 6 7 6 5 4 4 4 5 3 1 1 2 4 3 3 3 5 6 4 4 4 4 4 4 3 3 3 3 3 3 3 3 3
5 6 6 6 6 5 4 5 6 7 6 6 6 6 6 5 4 4 3 2 1 3 3 2 2 5 6 7 4 4 4 4 4 3 3 3 3 3 3 3 2 2 2 2
5 6 6 6 6 5 5 5 5 6 6 6 6 6 6 4 3 4 2 0 1 4 4 3 5 8 9 6 4 4 4 4 4 3 3 3 3 3 3 3 2 2 2 2
5 6 6 5 6 7 6 4 5 5 5 5 4 5 5 4 3 2 2 4 5 6 4 5 8 9 9 4 4 4 4 3 3 3 3 3 2 2 2 2 2 2 2 2
5 6 6 6 6 5 5 6 6 6 6 5 5 4 3 3 4 3 3 4 6 7 5 7 9 9 6 4 4 4 3 3 3 3 3 2 2 2 2 2 2 2 2 2
6 5 4 5 5 5 5 5 5 5 5 5 4 3 3 3 4 4 4 4 5 7 5 4 4 5 4 4 4 4 3 3 3 3 2 2 2 2 1 1 2 1 2 2
5 5 5 5 4 4 5 5 6 5 5 6 5 3 3 4 4 4 4 4 4 4 4 3 3 3 3 3 3 3 3 3 3 2 2 2 2 1 1 1 1 1 1 1
Wind_Direction
216 220 194 212 225 214 196 190 194 222 218 231 224 214 208 194 182 175 177 180 182 184 186 184 183 186 186 183 179 173 169 173 180 177 169 164 162 161 154 150 152 149 142 142
245 235 204 225 228 221 218 201 204 214 238 236 224 203 200 192 179 177 184 188 189 188 188 188 188 189 186 183 180 172 173 180 177 168 163 165 165 158 150 149 146 137 143 145
230 253 137 243 221 212 214 203 188 212 229 221 205 202 195 190 183 182 188 189 191 191 192 192 191 186 186 184 175 174 176 176 173 170 168 170 163 152 155 157 146 140 146 141
172 131 223 241 227 198 203 221 208 206 211 198 201 204 202 190 186 189 188 189 190 191 192 191 188 186 182 174 172 175 176 176 174 171 171 167 162 164 166 156 153 153 152 150
157 188 257 277 245 190 189 236 225 200 210 206 194 130 305 225 191 189 189 186 187 187 186 181 181 178 170 171 174 176 181 182 179 175 171 169 172 174 168 157 158 161 158 155
157 177 223 242 256 212 129 245 259 191 191 188 153 150 245 241 193 189 186 180 178 172 166 172 178 170 168 174 177 186 188 185 179 175 174 178 181 174 160 159 166 159 157 166
176 201 247 250 254 103 148 232 258 193 180 171 174 194 213 204 180 182 181 177 166 159 165 178 171 165 173 177 189 193 183 176 174 177 179 178 171 161 153 155 152 156 161 172
167 192 240 251 137 170 206 214 195 175 166 156 164 167 159 154 160 159 153 152 153 156 168 169 162 165 175 188 193 178 167 170 174 176 176 169 161 160 156 155 157 164 165 178
185 208 231 207 184 198 156 153 177 150 155 137 127 130 136 142 142 146 147 149 150 151 152 153 162 169 180 191 175 165 165 172 174 173 172 167 168 166 159 162 166 174 174 190
202 245 224 168 128 133 151 163 182 149 135 124 128 135 128 122 117 119 130 141 144 140 142 153 166 170 181 177 165 163 168 172 171 169 168 169 171 170 169 173 176 179 185 194
196 240 45 15 157 163 149 103 102 106 119 133 130 128 127 120 124 125 121 121 128 138 146 159 161 157 161 161 159 162 167 169 168 167 166 167 168 174 180 188 187 184 193 189
207 216 176 224 228 177 148 151 149 125 93 96 127 134 124 121 124 124 118 116 119 124 132 141 142 141 145 151 155 156 159 163 162 160 160 159 155 144 136 157 179 186 184 179
212 226 198 208 216 164 159 164 148 131 130 119 111 124 124 122 119 114 109 111 125 134 134 130 126 126 136 144 148 153 158 160 157 158 159 159 160 161 154 101 107 156 175 178
214 155 150 203 196 176 144 134 110 94 99 112 115 116 119 113 110 114 123 131 125 119 119 122 121 130 146 143 142 145 143 149 151 157 160 162 164 164 162 161 159 155 166 177
230 184 188 192 166 133 123 113 101 90 85 86 101 109 116 118 119 125 125 117 109 105 109 114 116 126 136 137 139 141 139 142 146 147 151 153 151 149 151 158 158 148 127 121
208 161 146 151 153 144 131 125 122 122 117 106 105 115 118 120 118 111 109 119 120 122 127 124 127 144 134 130 131 132 135 138 139 143 142 138 140 145 151 156 157 156 167 168
165 177 164 164 166 160 152 148 146 144 134 121 122 122 112 106 102 102 108 117 120 122 126 131 139 134 133 133 133 133 129 136 134 134 139 145 149 156 159 159 163 170 179 165
196 193 182 175 169 163 158 149 140 138 140 138 127 120 119 122 126 128 125 113 102 92 87 115 121 121 129 134 133 132 135 135 138 139 139 141 145 147 148 154 160 162 149 142
194 182 177 174 168 158 156 153 147 139 135 128 122 121 123 124 126 122 113 107 111 115 153 110 111 117 129 137 131 129 131 131 128 128 129 135 137 137 146 154 159 162 156 150
181 170 160 152 149 146 144 142 134 128 130 127 120 111 106 107 115 114 107 100 122 189 170 121 120 121 124 127 122 123 127 131 133 133 131 136 144 149 153 156 158 162 163 167
164 155 146 142 141 139 141 140 133 132 133 130 128 128 124 114 110 113 111 98 358 43 99 110 118 124 122 122 119 119 124 128 132 137 141 145 146 145 148 155 157 162 168 173
144 140 140 137 132 132 136 136 133 131 129 127 124 121 116 111 100 89 85 123 136 99 93 96 109 118 119 117 119 119 121 123 125 127 132 138 141 145 148 150 155 163 169 173
138 136 134 138 138 136 127 126 128 130 131 134 133 131 129 130 129 124 113 33 103 98 92 95 108 110 110 106 109 113 117 120 124 128 132 135 142 148 151 153 156 156 157 158
127 129 127 125 125 124 127 128 121 116 115 116 119 123 124 117 94 79 113 108 97 95 89 95 101 104 102 100 104 108 113 119 125 127 127 128 131 135 139 143 147 151 159 162
122 122 123 126 129 133 134 124 112 106 103 99 92 82 85 104 117 113 99 99 99 93 86 90 97 99 97 98 103 106 112 117 120 123 124 124 128 136 145 155 162 167 175 183
124 128 133 138 139 140 135 127 123 119 114 107 95 83 80 83 94 97 94 90 92 91 86 82 87 92 91 93 96 98 98 99 101 106 118 124 127 135 149 161 168 182 194 199
111 112 113 109 111 120 124 127 127 126 126 125 117 102 95 93 93 93 93 88 83 78 75 74 78 85 88 88 90 92 96 99 103 109 115 121 130 147 167 172 179 186 195 193